Regional Weather Roundup
Issued by NWS Wilmington, NC

Home | Current Version | Previous Version | Text Only | Print | Product List | Glossary On
Versions: 1 2 3 4 5 6 7 8 9 10 11 12 13 14 15 16 17 18 19 20 21 22 23 24 25 26 27 28 29 30 31 32 33 34 35 36 37 38 39 40 41 42 43 44 45 46 47 48 49 50
000
ASUS42 KILM 241913
RWRILM
RWRILM
REGIONAL HOURLY WEATHER ROUNDUP
NATIONAL WEATHER SERVICE WILMINGTON NC
300 PM EDT SUN MAY 24 2015

NOTE: "FAIR" INDICATES FEW OR NO CLOUDS BELOW 12,000 FEET WITH NO
SIGNIFICANT WEATHER AND/OR OBSTRUCTIONS TO VISIBILITY.

...............WFO WILMINGTON COUNTY WARNING AREA...............

......COASTAL NC AND SC COUNTIES......

CITY           SKY/WX    TMP DP  RH WIND       PRES   REMARKS
WILMINGTON     MOSUNNY   79  55  43 E10       30.37F
N MYRTLE BEACH SUNNY     78  58  49 SE12      30.37F
MYRTLE BEACH   MOSUNNY   81  59  47 SE14      30.39F

......INLAND NC AND SC COUNTIES.......

CITY           SKY/WX    TMP DP  RH WIND       PRES   REMARKS
LUMBERTON      MOSUNNY   87  54  32 S5        30.34F
ELIZABETHTOWN  MOSUNNY   82  50  33 S5        30.35F
WHITEVILLE     PTSUNNY   80  57  46 SE8       30.35F
FLORENCE       MOSUNNY   83  55  38 SE13      30.34F
DARLINGTON     MOSUNNY   84  57  39 SE12      30.35F

....................REST OF NORTH CAROLINA......................

.........EASTERN NC.........

CITY           SKY/WX    TMP DP  RH WIND       PRES   REMARKS
CAPE HATTERAS  SUNNY     76  54  46 E7        30.40F
JACKSONVILLE   SUNNY     81  54  39 SE9       30.37F
MOREHEAD CITY  SUNNY     77  59  53 E10       30.38F
KENANSVILLE    PTSUNNY   79  51  38 CALM      30.37F
NEW BERN       MOSUNNY   81  57  43 SE9       30.38F
ELIZABETH CITY SUNNY     78  58  49 SE12      30.38F

.........CENTRAL NC.........

CITY           SKY/WX    TMP DP  RH WIND       PRES   REMARKS
RALEIGH DURHAM MOSUNNY   80  54  40 VRB3      30.37F
ROCKY MOUNT    MOSUNNY   83  54  36 VRB5      30.36F
ROANOKE RAPIDS NOT AVBL
FAYETTEVILLE   MOSUNNY   82  54  37 S10G21    30.35F
HOFFMAN        PTSUNNY   80  49  33 SE5G15    30.39F

.........WESTERN NC.........

CITY           SKY/WX    TMP DP  RH WIND       PRES   REMARKS
CHARLOTTE      MOSUNNY   81  49  32 S12       30.35F
GREENSBORO     SUNNY     78  52  40 CALM      30.35F
HICKORY        NOT AVBL
BOONE          NOT AVBL
ASHEVILLE      NOT AVBL

.....................REST OF SOUTH CAROLINA.....................

.........EASTERN SC.........

CITY           SKY/WX    TMP DP  RH WIND       PRES   REMARKS
CHARLESTON     PTSUNNY   80  58  46 SE10G20   30.34F
BEAUFORT MCAS  PTSUNNY   80  61  52 E10       30.33F
HILTON HEAD    MOSUNNY   81  64  57 NE9G20    30.34S

.........CENTRAL SC.........

CITY           SKY/WX    TMP DP  RH WIND       PRES   REMARKS
COLUMBIA       PTSUNNY   84  54  35 E9G17     30.32F
ORANGEBURG     MOSUNNY   81  56  42 E8        30.33F
SUMTER SHAW    MOSUNNY   83  55  37 SE9       30.32F

.........WESTERN SC.........

CITY           SKY/WX    TMP DP  RH WIND       PRES   REMARKS
GREENVILLE     NOT AVBL
ROCK HILL      PTSUNNY   79  53  40 E7        30.35F
ANDERSON       MOSUNNY   81  52  36 SE5       30.32F
CLEMSON        NOT AVBL
GREENWOOD      MOSUNNY   81  53  37 SE8       30.33F


...................COASTAL AND OFFSHORE REPORTS..................

................LOCAL PIERS AND NC RESERVE................


STATION/POSITION TIME  SKY/WX   TEMP    WIND        PRES    VSBY
                                AIR SEA DIR/SP/G
                 (UTC)          (F)     (DEG/KT/KT) (MB)    (MI)
JOHNY MRCER PIER 1800            75 78  100/ 10/ 11 1028.7F
NC RESRV MASNBRO NOT AVBL
OCEAN CREST PIER NOT AVBL
SPRINGMAID  PIER 1800            75 76   80/ 11/ 12 1028.7F


................COASTAL AND OFFSHORE BUOYS................


STATION/POSITION TIME  SKY/WX   TEMP    WIND        PRES    VSBY
                                AIR SEA DIR/SP/G
                 (UTC)          (F)     (DEG/KT/KT) (MB)    (MI)
DIMNDSHOAL 41025 1850            74 79   70/  6/  8 1029.2F
WVE H/P(F/S)=  2/ 7 WND WVE H/P(F/S)=  2/ 4 SWL H/P/D(F/S/D)=  2/ 60/ 7

CAPE LOOKOUT     1900            75      90/  6/  7 1028.6F
ONSLOW BAY 41036 NOT AVBL
5 WRITEBCH 41038 1808            75 77  120/  8/ 12 1029.0F
MASONBORO  41110 1819               77                N/A
WVE H/P(F/S)=  3/ 6 WND WVE H/P(F/S)=  3/ 6

WILM HARBR 41108 1811               75                N/A
WVE H/P(F/S)=  3/ 6 WND WVE H/P(F/S)=  3/ 6

27WRITEBCH 41037 1800            72 77  110/ 10/ 12   N/A
FRYING PAN 41013 1850            76 74  110/ 14/ 16 1028.8F
WVE H/P(F/S)=  4/ 6 WND WVE H/P(F/S)=  3/ 6 SWL H/P/D(F/S/D)=  2/140/13

SUNST NRSH 41024 NOT AVBL
CAPRS NRSH 41029 1808            75      90/ 14/ 17 1028.0F
EDISTO     41004 1850            76 75   90/ 16/ 17 1026.6F
WVE H/P(F/S)=  5/ 7 WND WVE H/P(F/S)=  3/ 7 SWL H/P/D(F/S/D)=  2/14



..........OFFSHORE BUOYS BEYOND 100 NM OFFSHORE...........
.....IN A TRIANGLE---HAT TO BERMUDA TO BAHAMAS TO HAT.....


STATION/POSITION TIME  SKY/WX   TEMP    WIND        PRES    VSBY
                                AIR SEA DIR/SP/G
                 (UTC)          (F)     (DEG/KT/KT) (MB)    (MI)
150E HAT   41001 NOT AVBL
W BERMUDA  41048 1850            72 74   70/ 12/ 14 1026.9F
WVE H/P(F/S)=  4/ 7 WND WVE H/P(F/S)=  3/ 5 SWL H/P/D(F/S/D)=  3/360/ 7

ATLANTIC S 41049 1850            77 79   60/ 12/ 16 1022.7F
WVE H/P(F/S)=  4/ 9 WND WVE H/P(F/S)=  2/ 4 SWL H/P/D(F/S/D)=  3/320/ 9

E BAHAMAS  41046 1850            80 82   70/ 14/ 16 1020.8F
WVE H/P(F/S)=  4/10 WND WVE H/P(F/S)=  3/ 6 SWL H/P/D(F/S/D)=  3/360/10

NE BAHAMAS 41047 1850            77 79   60/ 12/ 14 1022.8F
WVE H/P(F/S)=  4/ 8 WND WVE H/P(F/S)=  3/ 4 SWL H/P/D(F/S/D)=  3/350/ 8

120E CANVRL41010 1820            79 80   90/ 12/ 14 1023.4F

END


USA.gov is the U.S. government's official web portal to all federal, state and local government web resources and services.